User: anonymous   Login
Location: Caltech
(34.1382°N, 118.1253°W)
Time: 19:03:55
(UTC-07:00)
Language:

SL-16 R/B - Orbit

View from above orbital plane
View from above orbital plane
View from above satellite
View from above satellite

Ground track
Ground track

The orbit data is extracted from the following two-line orbital elements,

1 31793U 07029B   16147.93298315 -.00000300 +00000-0 -13204-3 0  9998
2 31793 070.9740 120.4795 0002489 279.8179 144.4315 14.14359988460066
Epoch (UTC): 26 May 2016 22:23:29
Eccentricity: 0.0002489
inclination: 70.9740°
perigee height: 842 km
apogee height: 846 km
right ascension of ascending node: 120.4795°
argument of perigee: 279.8179°
revolutions per day: 14.14359988
mean anomaly at epoch: 144.4315°
orbit number at epoch: 46006

The dashed part of the orbit path shows where the satellite is in the earth's shadow,  

DLR